Satellite: NOAA-19
Catalog number: 33591
Epoch time:      10266.42443257
Element set:     685
Inclination:      098.7947 deg
RA of node:       206.4852 deg
Eccentricity:    0.0014665
Arg of perigee:   015.0414 deg
Mean anomaly:     345.1181 deg
Mean motion:   14.11084922 rev/day
Decay rate:      -1.05e-06 rev/day^2
Epoch rev:            8376
Checksum:              300

/EX
SB KEPS @ AMSAT  $ORB10266.M
Orbital Elements  10266.MISC

HR AMSAT ORBITAL ELEMENTS FOR MANNED AND MISCELLANEOUS SATELLITES
FROM WA5QGD FORT WORTH,TX September 23, 2010
Send Subscribe/unsubscribe to KEPS at
http://www.amsat.org/mailman/listinfo/keps
BID: ORB10266.M
TO ALL RADIO AMATEURS BT

Satellite: HUBBLE
Catalog number: 20580
Epoch time:      10265.25740514
Element set:     649
Inclination:      028.4710 deg
RA of node:       326.1269 deg
Eccentricity:    0.0003597
Arg of perigee:   154.1233 deg
Mean anomaly:     205.9576 deg
Mean motion:   15.01040865 rev/day
Decay rate:       5.95e-06 rev/day^2
Epoch rev:           91935
Checksum:              289

Satellite: ISS
Catalog number: 25544
Epoch time:      10267.01529725
Element set:     943
Inclination:      051.6446 deg
RA of node:       084.9754 deg
Eccentricity:    0.0006746
Arg of perigee:   028.0911 deg
Mean anomaly:     112.1887 deg
Mean motion:   15.71273653 rev/day
Decay rate:     1.6022e-04 rev/day^2
Epoch rev:           67901
Checksum:              299

Satellite: CO-58
Catalog number: 28895
Epoch time:      10265.71651820
Element set:    0687
Inclination:      097.9979 deg
RA of node:       146.8855 deg
Eccentricity:    0.0017392
Arg of perigee:   343.0201 deg
Mean anomaly:     017.0438 deg
Mean motion:   14.59936295 rev/day
Decay rate:       3.45e-06 rev/day^2
Epoch rev:           26121
Checksum:              342

Satellite: FALCON
Catalog number: 30776
Epoch time:      10266.87694109
Element set:     921
Inclination:      035.4330 deg
RA of node:       165.0590 deg
Eccentricity:    0.0001925
Arg of perigee:   310.1256 deg
Mean anomaly:     049.9275 deg
Mean motion:   15.03829462 rev/day
Decay rate:       9.95e-06 rev/day^2
Epoch rev:           19492
Checksum:              306

Satellite: MAST
Catalog number: 31126
Epoch time:      10266.58732791
Element set:     970
Inclination:      097.9281 deg
RA of node:       303.4659 deg
Eccentricity:    0.0093594
Arg of perigee:   280.5967 deg
Mean anomaly:     078.4688 deg
Mean motion:   14.53621528 rev/day
Decay rate:       1.14e-06 rev/day^2
Epoch rev:           18235
Checksum:              331

Satellite: CAPE1
Catalog number: 31130
Epoch time:      10266.59608780
Element set:     989
Inclination:      097.9317 deg
RA of node:       300.6921 deg
Eccentricity:    0.0101729
Arg of perigee:   289.3200 deg
Mean anomaly:     069.6997 deg
Mean motion:   14.52224023 rev/day
Decay rate:       1.26e-06 rev/day^2
Epoch rev:           18194
Checksum:              306

Satellite: COMPASS
Catalog number: 32787
Epoch time:      10265.19619769
Element set:    0783
Inclination:      097.8851 deg
RA of node:       328.5740 deg
Eccentricity:    0.0015330
Arg of perigee:   333.8558 deg
Mean anomaly:     026.1916 deg
Mean motion:   14.81969727 rev/day
Decay rate:       1.48e-06 rev/day^2
Epoch rev:           12986
Checksum:              348

Satellite: AAUSAT2
Catalog number: 32788
Epoch time:      10266.67499206
Element set:     775
Inclination:      097.8851 deg
RA of node:       330.1810 deg
Eccentricity:    0.0014801
Arg of perigee:   329.8490 deg
Mean anomaly:     030.1868 deg
Mean motion:   14.82121499 rev/day
Decay rate:       5.44e-06 rev/day^2
Epoch rev:           13009
Checksum:              312

Satellite: DO-64
Catalog number: 32789
Epoch time:      10266.74023887
Element set:     793
Inclination:      097.8927 deg
RA of node:       330.8351 deg
Eccentricity:    0.0015039
Arg of perigee:   327.9849 deg
Mean anomaly:     032.0455 deg
Mean motion:   14.82316573 rev/day
Decay rate:       8.25e-06 rev/day^2
Epoch rev:           13010
Checksum:              326

Satellite: CO-66
Catalog number: 32791
Epoch time:      10265.16518040
Element set:    0778
Inclination:      097.8866 deg
RA of node:       328.5451 deg
Eccentricity:    0.0015692
Arg of perigee:   332.6641 deg
Mean anomaly:     027.3728 deg
Mean motion:   14.81742303 rev/day
Decay rate:       5.95e-06 rev/day^2
Epoch rev:           12981
Checksum:              327

Satellite: RS-30
Catalog number: 32953
Epoch time:      10266.72864812
Element set:      69
Inclination:      082.5056 deg
RA of node:       328.4102 deg
Eccentricity:    0.0017620
Arg of perigee:   245.7386 deg
Mean anomaly:     114.1853 deg
Mean motion:   12.43007946 rev/day
Decay rate:        1.0e-07 rev/day^2
Epoch rev:           10598
Checksum:              284

Satellite: TACSAT-3
Catalog number: 35001
Epoch time:      10266.66608249
Element set:     389
Inclination:      040.4564 deg
RA of node:       342.1633 deg
Eccentricity:    0.0021586
Arg of perigee:   019.4372 deg
Mean anomaly:     340.7262 deg
Mean motion:   15.42775913 rev/day
Decay rate:      6.611e-05 rev/day^2
Epoch rev:            7584
Checksum:              296

